{"data":{"norad_id":43758,"epoch":"2026-05-25T04:19:33.497184Z","epoch_age_seconds":62941,"freshness":"FRESH","line1":"1 43758U 18099A   26145.18024881  .00034893  00000+0  73473-3 0  9997","line2":"2 43758  97.4544 220.8193 0006319 357.4373   2.6842 15.45179555410574","mean_motion":15.45179555,"eccentricity":0.0006319,"inclination_deg":97.4544,"raan_deg":220.8193,"arg_perigee_deg":357.4373,"mean_anomaly_deg":2.6842,"bstar":0.00073473,"rev_number":41057,"period_min":93.193052894102,"perigee_km":426.5479371784,"apogee_km":435.1531356269,"semimajor_km":6808.9875364026,"source":"CELESTRAK","updated_at":"2026-05-25T13:37:55.892032Z"}}